TimeMST,TemperatureF,Dew PointF,Humidity,Sea Level PressureIn,VisibilityMPH,Wind Direction,Wind SpeedMPH,Gust SpeedMPH,PrecipitationIn,Events,Conditions,WindDirDegrees,DateUTC
12:58 AM,29.3,18.3,64,29.98,10.0,SSW,5.8,-,N/A,,Clear,210,2013-01-12 07:58:00
1:58 AM,28.9,19.0,67,29.98,10.0,SSE,4.6,-,N/A,,Clear,150,2013-01-12 08:58:00
2:58 AM,28.2,18.3,66,29.98,10.0,SSE,5.8,-,N/A,,Clear,150,2013-01-12 09:58:00
3:58 AM,28.0,16.7,62,29.97,10.0,SSE,6.9,-,N/A,,Clear,160,2013-01-12 10:58:00
4:58 AM,26.8,16.9,66,29.97,10.0,SSE,5.8,-,N/A,,Clear,160,2013-01-12 11:58:00
5:58 AM,26.4,16.0,65,29.99,10.0,SE,5.8,-,N/A,,Clear,140,2013-01-12 12:58:00
6:58 AM,26.2,14.5,61,30.01,10.0,SSE,5.8,-,N/A,,Clear,150,2013-01-12 13:58:00
7:58 AM,27.0,15.1,61,30.04,10.0,SSE,6.9,-,N/A,,Clear,150,2013-01-12 14:58:00
8:58 AM,31.8,14.0,48,30.07,10.0,South,3.5,-,N/A,,Clear,170,2013-01-12 15:58:00
9:58 AM,36.1,12.0,37,30.07,10.0,South,5.8,-,N/A,,Clear,170,2013-01-12 16:58:00
10:58 AM,39.7,11.5,31,30.07,10.0,Calm,Calm,-,N/A,,Clear,0,2013-01-12 17:58:00
11:58 AM,41.4,10.4,28,30.05,10.0,WNW,4.6,-,N/A,,Clear,290,2013-01-12 18:58:00
12:58 PM,43.5,10.9,27,30.03,10.0,WSW,9.2,-,N/A,,Scattered Clouds,250,2013-01-12 19:58:00
1:04 PM,42.8,8.6,25,30.01,10.0,NW,12.7,-,N/A,,Scattered Clouds,310,2013-01-12 20:04:00
1:20 PM,44.6,10.4,25,30.00,10.0,NW,15.0,21.9,N/A,,Clear,310,2013-01-12 20:20:00
1:58 PM,44.1,9.9,25,30.02,10.0,North,10.4,-,N/A,,Clear,350,2013-01-12 20:58:00
2:12 PM,42.8,8.6,25,30.01,10.0,NNW,13.8,18.4,N/A,,Clear,330,2013-01-12 21:12:00
2:58 PM,42.8,8.4,24,30.02,10.0,North,10.4,-,N/A,,Clear,350,2013-01-12 21:58:00
3:58 PM,43.3,9.9,26,30.03,10.0,North,11.5,-,N/A,,Clear,350,2013-01-12 22:58:00
4:58 PM,42.6,7.7,24,30.03,10.0,NW,10.4,-,N/A,,Clear,320,2013-01-12 23:58:00
5:58 PM,39.0,9.5,30,30.04,10.0,NNW,8.1,-,N/A,,Clear,340,2013-01-13 00:58:00
6:58 PM,37.6,9.5,31,30.06,10.0,NNE,4.6,-,N/A,,Clear,20,2013-01-13 01:58:00
7:58 PM,36.9,10.0,33,30.09,10.0,NNE,2.3,-,N/A,,Clear,20,2013-01-13 02:58:00
8:58 PM,33.4,15.4,48,30.09,10.0,NNW,6.9,-,N/A,,Clear,340,2013-01-13 03:58:00
9:58 PM,30.2,14.9,53,30.10,10.0,South,3.5,-,N/A,,Clear,170,2013-01-13 04:58:00
10:58 PM,28.2,16.2,61,30.10,10.0,SE,5.8,-,N/A,,Clear,140,2013-01-13 05:58:00
11:58 PM,27.5,16.3,63,30.11,10.0,ESE,5.8,-,N/A,,Clear,120,2013-01-13 06:58:00